GEESAT 3-04

导读 | 星芒AI

GEESAT 3-04 是一颗由韩国开发的地球观测卫星,主要用于环境监测和地理信息数据采集。该卫星搭载高分辨率光学传感器,能够提供清晰的地表图像,支持自然资源管理、城市规划及灾害监测等应用。作为GEESAT系列的一部分,它在提升韩国遥感技术能力方面发挥着重要作用,并为相关科研和商业用户提供可靠的数据支持。

基本信息
目录编号:
61014
目录名称:
GEESAT 3-04
国际标识:
2024-159D
轨道中心:
EARTH
卫星名称:
GEESAT 3-04
卫星全名:
GEESAT 3-04
卫星状态:
在轨 (已飞行419 天)
发射日期:
2024-09-05 UTC
国别 :
中国 (CN)
星等 :
--
轨道信息
数据来源 国际轨道数据 AOE轨道数据
星历时间 2025-10-28T22:05:02+0800
16小时前
查看轨道信息
2025-10-27T02:00:00+0800
2天前
查看轨道信息
半长轴 6976.427km 6976.451km
偏心率 0.0011229 0.0011115
轨道倾角 49.999° 49.999°
近地点辐角 291.815° 286.069°
升交点赤经 347.026° 355.623°
平近点角 68.160° 294.890°
近地点 590.458km 590.561km
远地点 606.126km 606.071km
周期 96.652分钟 96.652分钟
每日圈数 14.898868 14.898791
详细信息
使用方式:
暂无
2D轨道图
3D轨道图
轨道高度分析图
轨道倾角分析图
轨道综合分析图
查看轨道综合分析图